Tracking 35334 objects as of 12-Sep-2026
HD Live streaming from Space Station
objects crossing your sky now

WESTFORD NEEDLES


WESTFORD NEEDLES is no longer on orbit
WESTFORD NEEDLES is classified as:


NORAD ID: 2497
Int'l Code: 1963-014AE
Launch date: May 9, 1963
Source: United States (US)
Launch site: AIR FORCE WESTERN TEST RANGE (AFWTR)
Decay date: 1981-03-30
Your satellite tracking list
Your tracking list is empty




NASA's NSSDC Master Catalog

Two Line Element Set (TLE):
1 02497U 63014 AE 81054.38768173  .00070013 +00000-0 +25721+0 0  9994
2 02497 084.9999 219.5372 2671077 323.5092 022.3392 09.00844786626220
Source of the keplerian elements: AFSPC